Year,Month,Day,Hour,Minute,Value (Times are PST for temperature in C)
2013,05,30,00,00,9.40
2013,05,30,00,01,9.40
2013,05,30,00,02,9.40
2013,05,30,00,03,9.40
2013,05,30,00,04,9.40
2013,05,30,00,05,9.40
2013,05,30,00,06,9.40
2013,05,30,00,07,9.30
2013,05,30,00,08,9.30
2013,05,30,00,09,9.30
2013,05,30,00,10,9.30
2013,05,30,00,11,9.30
2013,05,30,00,12,9.30
2013,05,30,00,13,9.30
2013,05,30,00,14,9.30
2013,05,30,00,15,9.30
2013,05,30,00,16,9.30
2013,05,30,00,17,9.30
2013,05,30,00,18,9.30
2013,05,30,00,19,9.30
2013,05,30,00,20,9.30
2013,05,30,00,21,9.30
2013,05,30,00,22,9.30
2013,05,30,00,23,9.30
2013,05,30,00,24,9.30
2013,05,30,00,25,9.30
2013,05,30,00,26,9.30
2013,05,30,00,27,9.30
2013,05,30,00,28,9.30
2013,05,30,00,29,9.30
2013,05,30,00,30,9.30
2013,05,30,00,31,9.30
2013,05,30,00,32,9.30
2013,05,30,00,33,9.30
2013,05,30,00,34,9.30
2013,05,30,00,35,9.30
2013,05,30,00,36,9.30
2013,05,30,00,37,9.20
2013,05,30,00,38,9.20
2013,05,30,00,39,9.20
2013,05,30,00,40,9.30
2013,05,30,00,41,9.30
2013,05,30,00,42,9.30
2013,05,30,00,43,9.30
2013,05,30,00,44,9.30
2013,05,30,00,45,9.30
2013,05,30,00,46,9.30
2013,05,30,00,47,9.30
2013,05,30,00,48,9.30
2013,05,30,00,49,9.30
2013,05,30,00,50,9.30
2013,05,30,00,51,9.30
2013,05,30,00,52,9.30
2013,05,30,00,53,9.30
2013,05,30,00,54,9.30
2013,05,30,00,55,9.30
2013,05,30,00,56,9.30
2013,05,30,00,57,9.30
2013,05,30,00,58,9.30
2013,05,30,00,59,9.30
2013,05,30,01,00,9.30
2013,05,30,01,01,9.30
2013,05,30,01,02,9.30
2013,05,30,01,03,9.30
2013,05,30,01,04,9.30
2013,05,30,01,05,9.30
2013,05,30,01,06,9.30
2013,05,30,01,07,9.30
2013,05,30,01,08,9.30
2013,05,30,01,09,9.30
2013,05,30,01,10,9.30
2013,05,30,01,11,9.30
2013,05,30,01,12,9.30
2013,05,30,01,13,9.30
2013,05,30,01,14,9.30
2013,05,30,01,15,9.30
2013,05,30,01,16,9.20
2013,05,30,01,17,9.20
2013,05,30,01,18,9.20
2013,05,30,01,19,9.20
2013,05,30,01,20,9.20
2013,05,30,01,21,9.20
2013,05,30,01,22,9.20
2013,05,30,01,23,9.20
2013,05,30,01,24,9.20
2013,05,30,01,25,9.20
2013,05,30,01,26,9.10
2013,05,30,01,27,9.10
2013,05,30,01,28,9.10
2013,05,30,01,29,9.10
2013,05,30,01,30,9.10
2013,05,30,01,31,9.10
2013,05,30,01,32,9.10
2013,05,30,01,33,9.10
2013,05,30,01,34,9.10
2013,05,30,01,35,9.00
2013,05,30,01,36,9.00
2013,05,30,01,37,9.00
2013,05,30,01,38,9.00
2013,05,30,01,39,9.00
2013,05,30,01,40,8.90
2013,05,30,01,41,8.90
2013,05,30,01,42,8.90
2013,05,30,01,43,8.90
2013,05,30,01,44,8.90
2013,05,30,01,45,8.90
2013,05,30,01,46,8.90
2013,05,30,01,47,8.80
2013,05,30,01,48,8.80
2013,05,30,01,49,8.80
2013,05,30,01,50,8.80
2013,05,30,01,51,8.80
2013,05,30,01,52,8.80
2013,05,30,01,53,8.80
2013,05,30,01,54,8.80
2013,05,30,01,55,8.70
2013,05,30,01,56,8.70
2013,05,30,01,57,8.70
2013,05,30,01,58,8.70
2013,05,30,01,59,8.70
2013,05,30,02,00,8.70
2013,05,30,02,01,8.60
2013,05,30,02,02,8.60
2013,05,30,02,03,8.60
2013,05,30,02,04,8.60
2013,05,30,02,05,8.60
2013,05,30,02,06,8.50
2013,05,30,02,07,8.50
2013,05,30,02,08,8.50
2013,05,30,02,09,8.50
2013,05,30,02,10,8.40
2013,05,30,02,11,8.40
2013,05,30,02,12,8.40
2013,05,30,02,13,8.40
2013,05,30,02,14,8.40
2013,05,30,02,15,8.40
2013,05,30,02,16,8.40
2013,05,30,02,17,8.40
2013,05,30,02,18,8.40
2013,05,30,02,19,8.30
2013,05,30,02,20,8.30
2013,05,30,02,21,8.30
2013,05,30,02,22,8.30
2013,05,30,02,23,8.30
2013,05,30,02,24,8.30
2013,05,30,02,25,8.30
2013,05,30,02,26,8.30
2013,05,30,02,27,8.30
2013,05,30,02,28,8.30
2013,05,30,02,29,8.30
2013,05,30,02,30,8.30
2013,05,30,02,31,8.30
2013,05,30,02,32,8.30
2013,05,30,02,33,8.30
2013,05,30,02,34,8.30
2013,05,30,02,35,8.30
2013,05,30,02,36,8.30
2013,05,30,02,37,8.20
2013,05,30,02,38,8.20
2013,05,30,02,39,8.20
2013,05,30,02,40,8.20
2013,05,30,02,41,8.20
2013,05,30,02,42,8.20
2013,05,30,02,43,8.20
2013,05,30,02,44,8.20
2013,05,30,02,45,8.20
2013,05,30,02,46,8.20
2013,05,30,02,47,8.20
2013,05,30,02,48,8.20
2013,05,30,02,49,8.10
2013,05,30,02,50,8.10
2013,05,30,02,51,8.10
2013,05,30,02,52,8.10
2013,05,30,02,53,8.10
2013,05,30,02,54,8.10
2013,05,30,02,55,8.10
2013,05,30,02,56,8.10
2013,05,30,02,57,8.10
2013,05,30,02,58,8.10
2013,05,30,02,59,8.10
2013,05,30,03,00,8.10
2013,05,30,03,01,8.10
2013,05,30,03,02,8.10
2013,05,30,03,03,8.10
2013,05,30,03,04,8.10
2013,05,30,03,05,8.10
2013,05,30,03,06,8.20
2013,05,30,03,07,8.20
2013,05,30,03,08,8.20
2013,05,30,03,09,8.30
2013,05,30,03,10,8.30
2013,05,30,03,11,8.30
2013,05,30,03,12,8.30
2013,05,30,03,13,8.30
2013,05,30,03,14,8.30
2013,05,30,03,15,8.30
2013,05,30,03,16,8.30
2013,05,30,03,17,8.30
2013,05,30,03,18,8.30
2013,05,30,03,19,8.30
2013,05,30,03,20,8.30
2013,05,30,03,21,8.30
2013,05,30,03,22,8.30
2013,05,30,03,23,8.30
2013,05,30,03,24,8.30
2013,05,30,03,25,8.30
2013,05,30,03,26,8.30
2013,05,30,03,27,8.30
2013,05,30,03,28,8.30
2013,05,30,03,29,8.30
2013,05,30,03,30,8.30
2013,05,30,03,31,8.30
2013,05,30,03,32,8.30
2013,05,30,03,33,8.30
2013,05,30,03,34,8.30
2013,05,30,03,35,8.30
2013,05,30,03,36,8.30
2013,05,30,03,37,8.30
2013,05,30,03,38,8.30
2013,05,30,03,39,8.30
2013,05,30,03,40,8.30
2013,05,30,03,41,8.30
2013,05,30,03,42,8.20
2013,05,30,03,43,8.20
2013,05,30,03,44,8.20
2013,05,30,03,45,8.20
2013,05,30,03,46,8.20
2013,05,30,03,47,8.20
2013,05,30,03,48,8.20
2013,05,30,03,49,8.20
2013,05,30,03,50,8.20
2013,05,30,03,51,8.20
2013,05,30,03,52,8.30
2013,05,30,03,53,8.30
2013,05,30,03,54,8.30
2013,05,30,03,55,8.30
2013,05,30,03,56,8.30
2013,05,30,03,57,8.30
2013,05,30,03,58,8.30
2013,05,30,03,59,8.20
2013,05,30,04,00,8.20
2013,05,30,04,01,8.20
2013,05,30,04,02,8.30
2013,05,30,04,03,8.30
2013,05,30,04,04,8.30
2013,05,30,04,05,8.30
2013,05,30,04,06,8.30
2013,05,30,04,07,8.30
2013,05,30,04,08,8.30
2013,05,30,04,09,8.30
2013,05,30,04,10,8.30
2013,05,30,04,11,8.20
2013,05,30,04,12,8.20
2013,05,30,04,13,8.20
2013,05,30,04,14,8.20
2013,05,30,04,15,8.20
2013,05,30,04,16,8.20
2013,05,30,04,17,8.20
2013,05,30,04,18,8.10
2013,05,30,04,19,8.10
2013,05,30,04,20,8.10
2013,05,30,04,21,8.10
2013,05,30,04,22,8.10
2013,05,30,04,23,8.10
2013,05,30,04,24,8.10
2013,05,30,04,25,8.10
2013,05,30,04,26,8.10
2013,05,30,04,27,8.10
2013,05,30,04,28,8.10
2013,05,30,04,29,8.10
2013,05,30,04,30,8.10
2013,05,30,04,31,8.10
2013,05,30,04,32,8.10
2013,05,30,04,33,8.10
2013,05,30,04,34,8.10
2013,05,30,04,35,8.10
2013,05,30,04,36,8.10
2013,05,30,04,37,8.10
2013,05,30,04,38,8.00
2013,05,30,04,39,8.00
2013,05,30,04,40,8.00
2013,05,30,04,41,8.00
2013,05,30,04,42,7.90
2013,05,30,04,43,7.90
2013,05,30,04,44,7.90
2013,05,30,04,45,7.90
2013,05,30,04,46,7.90
2013,05,30,04,47,7.90
2013,05,30,04,48,8.00
2013,05,30,04,49,8.00
2013,05,30,04,50,8.00
2013,05,30,04,51,8.00
2013,05,30,04,52,8.00
2013,05,30,04,53,8.00
2013,05,30,04,54,8.00
2013,05,30,04,55,8.00
2013,05,30,04,56,8.00
2013,05,30,04,57,8.00
2013,05,30,04,58,8.00
2013,05,30,04,59,8.00
2013,05,30,05,00,8.10
2013,05,30,05,01,8.30
2013,05,30,05,02,8.50
2013,05,30,05,03,8.50
2013,05,30,05,04,8.60
2013,05,30,05,05,8.60
2013,05,30,05,06,8.60
2013,05,30,05,07,8.60
2013,05,30,05,08,8.60
2013,05,30,05,09,8.60
2013,05,30,05,10,8.60
2013,05,30,05,11,8.50
2013,05,30,05,12,8.50
2013,05,30,05,13,8.40
2013,05,30,05,14,8.40
2013,05,30,05,15,8.30
2013,05,30,05,16,8.30
2013,05,30,05,17,8.30
2013,05,30,05,18,8.20
2013,05,30,05,19,8.20
2013,05,30,05,20,8.20
2013,05,30,05,21,8.20
2013,05,30,05,22,8.20
2013,05,30,05,23,8.20
2013,05,30,05,24,8.20
2013,05,30,05,25,8.20
2013,05,30,05,26,8.20
2013,05,30,05,27,8.20
2013,05,30,05,28,8.20
2013,05,30,05,29,8.20
2013,05,30,05,30,8.20
2013,05,30,05,31,8.20
2013,05,30,05,32,8.20
2013,05,30,05,33,8.20
2013,05,30,05,34,8.20
2013,05,30,05,35,8.30
2013,05,30,05,36,8.30
2013,05,30,05,37,8.30
2013,05,30,05,38,8.30
2013,05,30,05,39,8.30
2013,05,30,05,40,8.40
2013,05,30,05,41,8.40
2013,05,30,05,42,8.40
2013,05,30,05,43,8.40
2013,05,30,05,44,8.40
2013,05,30,05,45,8.40
2013,05,30,05,46,8.40
2013,05,30,05,47,8.40
2013,05,30,05,48,8.40
2013,05,30,05,49,8.40
2013,05,30,05,50,8.50
2013,05,30,05,51,8.50
2013,05,30,05,52,8.50
2013,05,30,05,53,8.50
2013,05,30,05,54,8.60
2013,05,30,05,55,8.60
2013,05,30,05,56,8.60
2013,05,30,05,57,8.60
2013,05,30,05,58,8.60
2013,05,30,05,59,8.60
2013,05,30,06,00,8.60
2013,05,30,06,01,8.60
2013,05,30,06,02,8.60
2013,05,30,06,03,8.70
2013,05,30,06,04,8.70
2013,05,30,06,05,8.70
2013,05,30,06,06,8.70
2013,05,30,06,07,8.70
2013,05,30,06,08,8.70
2013,05,30,06,09,8.70
2013,05,30,06,10,8.70
2013,05,30,06,11,8.70
2013,05,30,06,12,8.80
2013,05,30,06,13,8.80
2013,05,30,06,14,8.80
2013,05,30,06,15,8.80
2013,05,30,06,16,8.80
2013,05,30,06,17,8.80
2013,05,30,06,18,8.80
2013,05,30,06,19,8.90
2013,05,30,06,20,8.90
2013,05,30,06,21,8.90
2013,05,30,06,22,9.00
2013,05,30,06,23,9.00
2013,05,30,06,24,9.00
2013,05,30,06,25,9.10
2013,05,30,06,26,9.10
2013,05,30,06,27,9.10
2013,05,30,06,28,9.10
2013,05,30,06,29,9.10
2013,05,30,06,30,9.10
2013,05,30,06,31,9.10
2013,05,30,06,32,9.10
2013,05,30,06,33,9.10
2013,05,30,06,34,9.10
2013,05,30,06,35,9.10
2013,05,30,06,36,9.10
2013,05,30,06,37,9.10
2013,05,30,06,38,9.10
2013,05,30,06,39,9.10
2013,05,30,06,40,9.10
2013,05,30,06,41,9.10
2013,05,30,06,42,9.00
2013,05,30,06,43,9.00
2013,05,30,06,44,9.00
2013,05,30,06,45,9.00
2013,05,30,06,46,9.10
2013,05,30,06,47,9.10
2013,05,30,06,48,9.10
2013,05,30,06,49,9.20
2013,05,30,06,50,9.10
2013,05,30,06,51,9.10
2013,05,30,06,52,9.20
2013,05,30,06,53,9.20
2013,05,30,06,54,9.20
2013,05,30,06,55,9.20
2013,05,30,06,56,9.30
2013,05,30,06,57,9.30
2013,05,30,06,58,9.30
2013,05,30,06,59,9.30
2013,05,30,07,00,9.30
2013,05,30,07,01,9.30
2013,05,30,07,02,9.30
2013,05,30,07,03,9.40
2013,05,30,07,04,9.40
2013,05,30,07,05,9.40
2013,05,30,07,06,9.40
2013,05,30,07,07,9.40
2013,05,30,07,08,9.40
2013,05,30,07,09,9.40
2013,05,30,07,10,9.40
2013,05,30,07,11,9.50
2013,05,30,07,12,9.50
2013,05,30,07,13,9.50
2013,05,30,07,14,9.50
2013,05,30,07,15,9.50
2013,05,30,07,16,9.50
2013,05,30,07,17,9.50
2013,05,30,07,18,9.60
2013,05,30,07,19,9.60
2013,05,30,07,20,9.60
2013,05,30,07,21,9.60
2013,05,30,07,22,9.60
2013,05,30,07,23,9.60
2013,05,30,07,24,9.60
2013,05,30,07,25,9.60
2013,05,30,07,26,9.60
2013,05,30,07,27,9.60
2013,05,30,07,28,9.60
2013,05,30,07,29,9.60
2013,05,30,07,30,9.60
2013,05,30,07,31,9.70
2013,05,30,07,32,9.70
2013,05,30,07,33,9.70
2013,05,30,07,34,9.70
2013,05,30,07,35,9.70
2013,05,30,07,36,9.70
2013,05,30,07,37,9.70
2013,05,30,07,38,9.70
2013,05,30,07,39,9.70
2013,05,30,07,40,9.70
2013,05,30,07,41,9.70
2013,05,30,07,42,9.70
2013,05,30,07,43,9.70
2013,05,30,07,44,9.70
2013,05,30,07,45,9.70
2013,05,30,07,46,9.70
2013,05,30,07,47,9.70
2013,05,30,07,48,9.70
2013,05,30,07,49,9.80
2013,05,30,07,50,9.80
2013,05,30,07,51,9.80
2013,05,30,07,52,9.80
2013,05,30,07,53,9.80
2013,05,30,07,54,9.80
2013,05,30,07,55,9.90
2013,05,30,07,56,9.90
2013,05,30,07,57,9.90
2013,05,30,07,58,9.90
2013,05,30,07,59,9.90
2013,05,30,08,00,9.90
2013,05,30,08,01,9.90
2013,05,30,08,02,9.90
2013,05,30,08,03,9.90
2013,05,30,08,04,9.90
2013,05,30,08,05,9.90
2013,05,30,08,06,9.90
2013,05,30,08,07,9.90
2013,05,30,08,08,9.90
2013,05,30,08,09,9.90
2013,05,30,08,10,9.80
2013,05,30,08,11,9.80
2013,05,30,08,12,9.80
2013,05,30,08,13,9.80
2013,05,30,08,14,9.80
2013,05,30,08,15,9.80
2013,05,30,08,16,9.80
2013,05,30,08,17,9.80
2013,05,30,08,18,9.80
2013,05,30,08,19,9.80
2013,05,30,08,20,9.80
2013,05,30,08,21,9.80
2013,05,30,08,22,9.80
2013,05,30,08,23,9.80
2013,05,30,08,24,9.80
2013,05,30,08,25,9.80
2013,05,30,08,26,9.80
2013,05,30,08,27,9.80
2013,05,30,08,28,9.80
2013,05,30,08,29,9.80
2013,05,30,08,30,9.80
2013,05,30,08,31,9.80
2013,05,30,08,32,9.80
2013,05,30,08,33,9.80
2013,05,30,08,34,9.80
2013,05,30,08,35,9.80
2013,05,30,08,36,9.80
2013,05,30,08,37,9.80
2013,05,30,08,38,9.70
2013,05,30,08,39,9.70
2013,05,30,08,40,9.70
2013,05,30,08,41,9.70
2013,05,30,08,42,9.70
2013,05,30,08,43,9.70
2013,05,30,08,44,9.70
2013,05,30,08,45,9.70
2013,05,30,08,46,9.70
2013,05,30,08,47,9.70
2013,05,30,08,48,9.70
2013,05,30,08,49,9.70
2013,05,30,08,50,9.70
2013,05,30,08,51,9.70
2013,05,30,08,52,9.70
2013,05,30,08,53,9.70
2013,05,30,08,54,9.70
2013,05,30,08,55,9.80
2013,05,30,08,56,9.80
2013,05,30,08,57,9.80
2013,05,30,08,58,9.70
2013,05,30,08,59,9.70
2013,05,30,09,00,9.70
2013,05,30,09,01,9.70
2013,05,30,09,02,9.70
2013,05,30,09,03,9.60
2013,05,30,09,04,9.60
2013,05,30,09,05,9.60
2013,05,30,09,06,9.60
2013,05,30,09,07,9.60
2013,05,30,09,08,9.60
2013,05,30,09,09,9.70
2013,05,30,09,10,9.70
2013,05,30,09,11,9.70
2013,05,30,09,12,9.70
2013,05,30,09,13,9.70
2013,05,30,09,14,9.70
2013,05,30,09,15,9.70
2013,05,30,09,16,9.70
2013,05,30,09,17,9.80
2013,05,30,09,18,9.80
2013,05,30,09,19,9.80
2013,05,30,09,20,9.80
2013,05,30,09,21,9.80
2013,05,30,09,22,9.80
2013,05,30,09,23,9.80
2013,05,30,09,24,9.80
2013,05,30,09,25,9.90
2013,05,30,09,26,9.90
2013,05,30,09,27,9.90
2013,05,30,09,28,9.90
2013,05,30,09,29,9.90
2013,05,30,09,30,9.90
2013,05,30,09,31,9.90
2013,05,30,09,32,9.90
2013,05,30,09,33,9.90
2013,05,30,09,34,9.90
2013,05,30,09,35,9.90
2013,05,30,09,36,9.90
2013,05,30,09,37,9.90
2013,05,30,09,38,9.90
2013,05,30,09,39,10.00
2013,05,30,09,40,10.00
2013,05,30,09,41,10.00
2013,05,30,09,42,10.00
2013,05,30,09,43,10.00
2013,05,30,09,44,10.00
2013,05,30,09,45,10.00
2013,05,30,09,46,10.10
2013,05,30,09,47,10.10
2013,05,30,09,48,10.20
2013,05,30,09,49,10.30
2013,05,30,09,50,10.30
2013,05,30,09,51,10.30
2013,05,30,09,52,10.30
2013,05,30,09,53,10.30
2013,05,30,09,54,10.30
2013,05,30,09,55,10.30
2013,05,30,09,56,10.30
2013,05,30,09,57,10.30
2013,05,30,09,58,10.30
2013,05,30,09,59,10.30
2013,05,30,10,00,10.40
2013,05,30,10,01,10.30
2013,05,30,10,02,10.20
2013,05,30,10,03,10.20
2013,05,30,10,04,10.20
2013,05,30,10,05,10.20
2013,05,30,10,06,10.20
2013,05,30,10,07,10.20
2013,05,30,10,08,10.20
2013,05,30,10,09,10.20
2013,05,30,10,10,10.20
2013,05,30,10,11,10.20
2013,05,30,10,12,10.20
2013,05,30,10,13,10.10
2013,05,30,10,14,10.10
2013,05,30,10,15,10.10
2013,05,30,10,16,10.10
2013,05,30,10,17,10.20
2013,05,30,10,18,10.20
2013,05,30,10,19,10.30
2013,05,30,10,20,10.30
2013,05,30,10,21,10.30
2013,05,30,10,22,10.30
2013,05,30,10,23,10.30
2013,05,30,10,24,10.30
2013,05,30,10,25,10.30
2013,05,30,10,26,10.20
2013,05,30,10,27,10.20
2013,05,30,10,28,10.20
2013,05,30,10,29,10.10
2013,05,30,10,30,10.10
2013,05,30,10,31,10.00
2013,05,30,10,32,10.00
2013,05,30,10,33,10.00
2013,05,30,10,34,10.00
2013,05,30,10,35,10.00
2013,05,30,10,36,10.00
2013,05,30,10,37,10.10
2013,05,30,10,38,10.10
2013,05,30,10,39,10.10
2013,05,30,10,40,10.10
2013,05,30,10,41,10.10
2013,05,30,10,42,10.20
2013,05,30,10,43,10.20
2013,05,30,10,44,10.20
2013,05,30,10,45,10.20
2013,05,30,10,46,10.30
2013,05,30,10,47,10.30
2013,05,30,10,48,10.30
2013,05,30,10,49,10.30
2013,05,30,10,50,10.40
2013,05,30,10,51,10.40
2013,05,30,10,52,10.40
2013,05,30,10,53,10.40
2013,05,30,10,54,10.40
2013,05,30,10,55,10.40
2013,05,30,10,56,10.40
2013,05,30,10,57,10.40
2013,05,30,10,58,10.40
2013,05,30,10,59,10.40
2013,05,30,11,00,10.40
2013,05,30,11,01,10.30
2013,05,30,11,02,10.30
2013,05,30,11,03,10.30
2013,05,30,11,04,10.20
2013,05,30,11,05,10.20
2013,05,30,11,06,10.20
2013,05,30,11,07,10.20
2013,05,30,11,08,10.20
2013,05,30,11,09,10.30
2013,05,30,11,10,10.30
2013,05,30,11,11,10.30
2013,05,30,11,12,10.30
2013,05,30,11,13,10.40
2013,05,30,11,14,10.50
2013,05,30,11,15,10.50
2013,05,30,11,16,10.50
2013,05,30,11,17,10.50
2013,05,30,11,18,10.50
2013,05,30,11,19,10.50
2013,05,30,11,20,10.50
2013,05,30,11,21,10.50
2013,05,30,11,22,10.50
2013,05,30,11,23,10.50
2013,05,30,11,24,10.50
2013,05,30,11,25,10.60
2013,05,30,11,26,10.60
2013,05,30,11,27,10.60
2013,05,30,11,28,10.60
2013,05,30,11,29,10.60
2013,05,30,11,30,10.60
2013,05,30,11,31,10.60
2013,05,30,11,32,10.60
2013,05,30,11,33,10.60
2013,05,30,11,34,10.60
2013,05,30,11,35,10.60
2013,05,30,11,36,10.60
2013,05,30,11,37,10.70
2013,05,30,11,38,10.70
2013,05,30,11,39,10.70
2013,05,30,11,40,10.70
2013,05,30,11,41,10.70
2013,05,30,11,42,10.70
2013,05,30,11,43,10.70
2013,05,30,11,44,10.80
2013,05,30,11,45,10.80
2013,05,30,11,46,10.70
2013,05,30,11,47,10.70
2013,05,30,11,48,10.70
2013,05,30,11,49,10.70
2013,05,30,11,50,10.70
2013,05,30,11,51,10.70
2013,05,30,11,52,10.70
2013,05,30,11,53,10.70
2013,05,30,11,54,10.70
2013,05,30,11,55,10.70
2013,05,30,11,56,10.70
2013,05,30,11,57,10.80
2013,05,30,11,58,10.80
2013,05,30,11,59,10.80
2013,05,30,12,00,10.80
2013,05,30,12,01,10.90
2013,05,30,12,02,10.90
2013,05,30,12,03,11.00
2013,05,30,12,04,11.10
2013,05,30,12,05,11.20
2013,05,30,12,06,11.20
2013,05,30,12,07,11.30
2013,05,30,12,08,11.30
2013,05,30,12,09,11.30
2013,05,30,12,10,11.30
2013,05,30,12,11,11.30
2013,05,30,12,12,11.30
2013,05,30,12,13,11.30
2013,05,30,12,14,11.40
2013,05,30,12,15,11.50
2013,05,30,12,16,11.60
2013,05,30,12,17,11.60
2013,05,30,12,18,11.60
2013,05,30,12,19,11.70
2013,05,30,12,20,11.70
2013,05,30,12,21,11.80
2013,05,30,12,22,11.80
2013,05,30,12,23,11.80
2013,05,30,12,24,11.80
2013,05,30,12,25,11.80
2013,05,30,12,26,11.80
2013,05,30,12,27,11.80
2013,05,30,12,28,11.80
2013,05,30,12,29,11.80
2013,05,30,12,30,11.70
2013,05,30,12,31,11.70
2013,05,30,12,32,11.70
2013,05,30,12,33,11.80
2013,05,30,12,34,11.80
2013,05,30,12,35,11.80
2013,05,30,12,36,11.90
2013,05,30,12,37,11.90
2013,05,30,12,38,11.80
2013,05,30,12,39,11.80
2013,05,30,12,40,11.80
2013,05,30,12,41,11.80
2013,05,30,12,42,11.80
2013,05,30,12,43,11.80
2013,05,30,12,44,11.70
2013,05,30,12,45,11.70
2013,05,30,12,46,11.70
2013,05,30,12,47,11.60
2013,05,30,12,48,11.60
2013,05,30,12,49,11.60
2013,05,30,12,50,11.60
2013,05,30,12,51,11.60
2013,05,30,12,52,11.60
2013,05,30,12,53,11.60
2013,05,30,12,54,11.50
2013,05,30,12,55,11.50
2013,05,30,12,56,11.50
2013,05,30,12,57,11.50
2013,05,30,12,58,11.40
2013,05,30,12,59,11.40
2013,05,30,13,00,11.40
2013,05,30,13,01,11.50
2013,05,30,13,02,11.50
2013,05,30,13,03,11.60
2013,05,30,13,04,11.60
2013,05,30,13,05,11.60
2013,05,30,13,06,11.60
2013,05,30,13,07,11.60
2013,05,30,13,08,11.60
2013,05,30,13,09,11.70
2013,05,30,13,10,11.70
2013,05,30,13,11,11.70
2013,05,30,13,12,11.70
2013,05,30,13,13,11.70
2013,05,30,13,14,11.70
2013,05,30,13,15,11.70
2013,05,30,13,16,11.70
2013,05,30,13,17,11.70
2013,05,30,13,18,11.70
2013,05,30,13,19,11.70
2013,05,30,13,20,11.70
2013,05,30,13,21,11.80
2013,05,30,13,22,11.80
2013,05,30,13,23,11.80
2013,05,30,13,24,11.80
2013,05,30,13,25,11.90
2013,05,30,13,26,12.00
2013,05,30,13,27,12.00
2013,05,30,13,28,12.00
2013,05,30,13,29,12.00
2013,05,30,13,30,12.10
2013,05,30,13,31,12.10
2013,05,30,13,32,12.20
2013,05,30,13,33,12.20
2013,05,30,13,34,12.30
2013,05,30,13,35,12.40
2013,05,30,13,36,12.40
2013,05,30,13,37,12.50
2013,05,30,13,38,12.50
2013,05,30,13,39,12.60
2013,05,30,13,40,12.60
2013,05,30,13,41,12.60
2013,05,30,13,42,12.60
2013,05,30,13,43,12.60
2013,05,30,13,44,12.60
2013,05,30,13,45,12.50
2013,05,30,13,46,12.50
2013,05,30,13,47,12.50
2013,05,30,13,48,12.50
2013,05,30,13,49,12.50
2013,05,30,13,50,12.50
2013,05,30,13,51,12.50
2013,05,30,13,52,12.60
2013,05,30,13,53,12.60
2013,05,30,13,54,12.70
2013,05,30,13,55,12.70
2013,05,30,13,56,12.60
2013,05,30,13,57,12.50
2013,05,30,13,58,12.50
2013,05,30,13,59,12.60
2013,05,30,14,00,12.60
2013,05,30,14,01,12.70
2013,05,30,14,02,12.90
2013,05,30,14,03,13.00
2013,05,30,14,04,13.00
2013,05,30,14,05,13.10
2013,05,30,14,06,13.10
2013,05,30,14,07,13.10
2013,05,30,14,08,13.00
2013,05,30,14,09,13.00
2013,05,30,14,10,12.80
2013,05,30,14,11,12.80
2013,05,30,14,12,12.80
2013,05,30,14,13,12.80
2013,05,30,14,14,12.80
2013,05,30,14,15,12.90
2013,05,30,14,16,13.00
2013,05,30,14,17,13.00
2013,05,30,14,18,13.10
2013,05,30,14,19,13.20
2013,05,30,14,20,13.20
2013,05,30,14,21,13.30
2013,05,30,14,22,13.30
2013,05,30,14,23,13.30
2013,05,30,14,24,13.20
2013,05,30,14,25,13.20
2013,05,30,14,26,13.20
2013,05,30,14,27,13.20
2013,05,30,14,28,13.20
2013,05,30,14,29,13.10
2013,05,30,14,30,13.00
2013,05,30,14,31,12.90
2013,05,30,14,32,12.80
2013,05,30,14,33,12.80
2013,05,30,14,34,13.00
2013,05,30,14,35,13.10
2013,05,30,14,36,13.20
2013,05,30,14,37,13.30
2013,05,30,14,38,13.40
2013,05,30,14,39,13.50
2013,05,30,14,40,13.60
2013,05,30,14,41,13.80
2013,05,30,14,42,13.90
2013,05,30,14,43,13.90
2013,05,30,14,44,13.90
2013,05,30,14,45,13.90
2013,05,30,14,46,13.90
2013,05,30,14,47,13.90
2013,05,30,14,48,13.80
2013,05,30,14,49,13.70
2013,05,30,14,50,13.60
2013,05,30,14,51,13.60
2013,05,30,14,52,13.50
2013,05,30,14,53,13.40
2013,05,30,14,54,13.30
2013,05,30,14,55,13.20
2013,05,30,14,56,13.20
2013,05,30,14,57,13.10
2013,05,30,14,58,13.00
2013,05,30,14,59,12.90
2013,05,30,15,00,12.90
2013,05,30,15,01,12.90
2013,05,30,15,02,13.00
2013,05,30,15,03,13.10
2013,05,30,15,04,13.20
2013,05,30,15,05,13.20
2013,05,30,15,06,13.20
2013,05,30,15,07,13.30
2013,05,30,15,08,13.30
2013,05,30,15,09,13.30
2013,05,30,15,10,13.20
2013,05,30,15,11,13.10
2013,05,30,15,12,13.10
2013,05,30,15,13,13.10
2013,05,30,15,14,13.10
2013,05,30,15,15,13.10
2013,05,30,15,16,13.20
2013,05,30,15,17,13.30
2013,05,30,15,18,13.20
2013,05,30,15,19,13.20
2013,05,30,15,20,13.10
2013,05,30,15,21,13.00
2013,05,30,15,22,13.00
2013,05,30,15,23,12.90
2013,05,30,15,24,12.80
2013,05,30,15,25,12.70
2013,05,30,15,26,12.70
2013,05,30,15,27,12.60
2013,05,30,15,28,12.60
2013,05,30,15,29,12.60
2013,05,30,15,30,12.60
2013,05,30,15,31,12.60
2013,05,30,15,32,12.50
2013,05,30,15,33,12.50
2013,05,30,15,34,12.50
2013,05,30,15,35,12.50
2013,05,30,15,36,12.50
2013,05,30,15,37,12.40
2013,05,30,15,38,12.40
2013,05,30,15,39,12.40
2013,05,30,15,40,12.30
2013,05,30,15,41,12.30
2013,05,30,15,42,12.40
2013,05,30,15,43,12.40
2013,05,30,15,44,12.40
2013,05,30,15,45,12.40
2013,05,30,15,46,12.40
2013,05,30,15,47,12.40
2013,05,30,15,48,12.40
2013,05,30,15,49,12.40
2013,05,30,15,50,12.30
2013,05,30,15,51,12.30
2013,05,30,15,52,12.30
2013,05,30,15,53,12.30
2013,05,30,15,54,12.20
2013,05,30,15,55,12.20
2013,05,30,15,56,12.20
2013,05,30,15,57,12.20
2013,05,30,15,58,12.10
2013,05,30,15,59,12.10
2013,05,30,16,00,12.10
2013,05,30,16,01,12.10
2013,05,30,16,02,12.10
2013,05,30,16,03,12.10
2013,05,30,16,04,12.10
2013,05,30,16,05,12.10
2013,05,30,16,06,12.10
2013,05,30,16,07,12.10
2013,05,30,16,08,12.10
2013,05,30,16,09,12.10
2013,05,30,16,10,12.10
2013,05,30,16,11,12.10
2013,05,30,16,12,12.10
2013,05,30,16,13,12.10
2013,05,30,16,14,12.10
2013,05,30,16,15,12.00
2013,05,30,16,16,12.00
2013,05,30,16,17,12.00
2013,05,30,16,18,12.00
2013,05,30,16,19,12.00
2013,05,30,16,20,12.00
2013,05,30,16,21,12.00
2013,05,30,16,22,12.00
2013,05,30,16,23,12.00
2013,05,30,16,24,12.00
2013,05,30,16,25,11.90
2013,05,30,16,26,12.00
2013,05,30,16,27,12.10
2013,05,30,16,28,12.10
2013,05,30,16,29,12.10
2013,05,30,16,30,12.20
2013,05,30,16,31,12.30
2013,05,30,16,32,12.30
2013,05,30,16,33,12.30
2013,05,30,16,34,12.40
2013,05,30,16,35,12.40
2013,05,30,16,36,12.40
2013,05,30,16,37,12.40
2013,05,30,16,38,12.40
2013,05,30,16,39,12.50
2013,05,30,16,40,12.50
2013,05,30,16,41,12.50
2013,05,30,16,42,12.50
2013,05,30,16,43,12.50
2013,05,30,16,44,12.50
2013,05,30,16,45,12.50
2013,05,30,16,46,12.50
2013,05,30,16,47,12.50
2013,05,30,16,48,12.50
2013,05,30,16,49,12.40
2013,05,30,16,50,12.30
2013,05,30,16,51,12.30
2013,05,30,16,52,12.30
2013,05,30,16,53,12.30
2013,05,30,16,54,12.40
2013,05,30,16,55,12.40
2013,05,30,16,56,12.40
2013,05,30,16,57,12.40
2013,05,30,16,58,12.40
2013,05,30,16,59,12.40
2013,05,30,17,00,12.40
2013,05,30,17,01,12.40
2013,05,30,17,02,12.50
2013,05,30,17,03,12.50
2013,05,30,17,04,12.50
2013,05,30,17,05,12.40
2013,05,30,17,06,12.40
2013,05,30,17,07,12.40
2013,05,30,17,08,12.40
2013,05,30,17,09,12.40
2013,05,30,17,10,12.40
2013,05,30,17,11,12.40
2013,05,30,17,12,12.50
2013,05,30,17,13,12.40
2013,05,30,17,14,12.40
2013,05,30,17,15,12.50
2013,05,30,17,16,12.50
2013,05,30,17,17,12.60
2013,05,30,17,18,12.60
2013,05,30,17,19,12.60
2013,05,30,17,20,12.60
2013,05,30,17,21,12.60
2013,05,30,17,22,12.60
2013,05,30,17,23,12.70
2013,05,30,17,24,12.70
2013,05,30,17,25,12.80
2013,05,30,17,26,12.80
2013,05,30,17,27,12.80
2013,05,30,17,28,12.80
2013,05,30,17,29,12.90
2013,05,30,17,30,12.90
2013,05,30,17,31,12.90
2013,05,30,17,32,13.00
2013,05,30,17,33,13.00
2013,05,30,17,34,13.00
2013,05,30,17,35,13.00
2013,05,30,17,36,13.00
2013,05,30,17,37,12.90
2013,05,30,17,38,12.90
2013,05,30,17,39,12.90
2013,05,30,17,40,12.90
2013,05,30,17,41,12.90
2013,05,30,17,42,12.90
2013,05,30,17,43,12.90
2013,05,30,17,44,12.90